Regional Weather Roundup
Issued by NWS

Home | Current Version | Previous Version | Graphics & Text | Print | Product List | Glossary On
Versions: 1 2 3 4 5 6 7 8 9 10 11 12 13 14 15 16 17 18 19 20 21 22 23 24 25 26 27 28 29 30 31 32 33 34 35 36 37 38 39 40 41 42 43 44 45 46 47 48 49 50
000
ASUS43 KLOT 230303
RWRIL

ILLINOIS REGIONAL WEATHER ROUNDUP
NATIONAL WEATHER SERVICE CHICAGO/ROMEOVILLE IL
1000 PM CDT FRI SEP 22 2017

NOTE: "FAIR" INDICATES FEW OR NO CLOUDS BELOW 12,000 FEET WITH NO
SIGNIFICANT WEATHER AND/OR OBSTRUCTIONS TO VISIBILITY.

* THESE STATIONS ARE NOT UNDER NWS QUALITY CONTROL. THEY ALSO MAY NOT
  REPORT WEATHER SUCH AS PRECIPITATION OR FOG.

ILZ001-002-007-009-015-016-024-230400-
NORTHWEST ILLINOIS

CITY           SKY/WX    TMP DP  RH WIND       PRES   REMARKS
MOLINE         CLEAR     75  66  73 SE3       29.99S
STERLING*      CLEAR     71  67  87 SE3       30.02R
SAVANNA*       CLEAR     71  66  83 CALM      30.01S
$$

ILZ003-004-008-010-011-017-018-230400-
NORTH CENTRAL ILLINOIS

CITY           SKY/WX    TMP DP  RH WIND       PRES   REMARKS
ROCKFORD       CLEAR     75  64  68 CALM      30.03S
FREEPORT*      CLEAR     74  65  71 S8        30.03S
ROCHELLE*      CLEAR     70  64  83 SE3       30.04R
DE KALB*       CLEAR     73  65  74 S7        30.05R
$$

ILZ005-006-012>014-019>023-230400-
NORTHEAST ILLINOIS

CITY           SKY/WX    TMP DP  RH WIND       PRES   REMARKS
CHICAGO-OHARE  CLEAR     81  66  60 SE6       30.03R HX  83
CHICAGO-MIDWAY CLEAR     84  67  56 SE8       30.03S HX  86
AURORA         CLEAR     75  66  73 SE6       30.04R
LANSING*       CLEAR     74  70  86 CALM      30.04S
JOLIET*        CLEAR     76  69  78 SW5       30.04R
WAUKEGAN       CLEAR     80  67  64 S7        30.03R HX  82
DUPAGE AIRPORT CLEAR     76  67  73 S6        30.03S
KANKAKEE*      CLEAR     74  68  80 CALM      30.05S
WHEELING       CLEAR     78  69  73 CALM      30.04R HX  80
MORRIS*        CLEAR     75  67  75 SE6       30.02S
NORTHERLY ISL    N/A     74  67  78 S6          N/A
$$

LMZ740>746-230400-
SOUTHERN LAKE MICHIGAN

STATION/POSITION SKY/WX   TEMP    WIND        PRES    VSBY  WAVE
                          AIR SEA DIR/SP/G                  HT/PER
                          (F)     (DEG/KT/KT) (MB)    (MI)  (FT/S)
SOUTHERN BUOY              75 70  130/  8/ 10 1016.7          0
WILMETTE HARBOR            75 72  170/  8/ 10   N/A           1/ 2
HARRISON CRIB              76     180/  9/ 10   N/A
BURNHAM HARBOR             74                   N/A
CALUMET HARBOR             78     100/  6/  8 1016.5F
BURNS HARBOR               81     150/  4/  7 1017.6F
MICHIGAN CITY              78     130/  4/  5   N/A
MICHIGAN CITY 6N           74 72  130/  2/  4   N/A           0
ST. JOSEPH                 76 74  150/  6/  6 1016.9F         0
$$

ILZ025>027-034>036-040-047-049-050-058-095>099-230400-
WEST-CENTRAL ILLINOIS

CITY           SKY/WX    TMP DP  RH WIND       PRES   REMARKS
QUINCY         CLEAR     75  63  66 SE5       30.00S
GALESBURG*     CLEAR     71  66  83 SE3       30.03R
MACOMB*        CLEAR     70  65  82 SE3       30.03S
$$

ILZ028>032-037-038-041>044-048-051>054-059>061-230400-
CENTRAL ILLINOIS

CITY           SKY/WX    TMP DP  RH WIND       PRES   REMARKS
BLOOMINGTON    PTCLDY    76  65  68 E7        30.05S
DECATUR        CLEAR     74  65  73 SE3       30.04R
PEORIA         CLEAR     80  65  59 SE6       30.02R HX  82
LACON*         CLEAR     79  65  63 SE7       30.01S HX  81
LINCOLN*       PTCLDY    77  67  71 CALM      30.02S
SPRINGFIELD    CLEAR     74  66  76 CALM      30.02R
TAYLORVILLE    NOT AVBL
$$

ILZ033-039-045-046-055>057-062-063-230400-
EAST-CENTRAL ILLINOIS

CITY           SKY/WX    TMP DP  RH WIND       PRES   REMARKS
CHAMPAIGN      CLEAR     75  65  70 SE5       30.05S
MATTOON        CLEAR     76  67  73 E5        30.03S
PARIS*         PTCLDY    71  71 100 E5        30.05F FOG
$$

ILZ079-100>102-230400-
SOUTHWEST ILLINOIS

CITY           SKY/WX    TMP DP  RH WIND       PRES   REMARKS
ALTON          CLEAR     70  66  88 E6        30.01S
BELLEVILLE     CLEAR     73  67  81 CALM      30.00R
CAHOKIA*       CLEAR     73  63  70 S3        30.00S
SPARTA*        CLEAR     72  67  86 CALM      30.02S
$$

ILZ064>066-069>071-074>076-080>082-084>086-088>090-092>094-230400-
SOUTH-CENTRAL ILLINOIS

CITY           SKY/WX    TMP DP  RH WIND       PRES   REMARKS
CARBONDALE     CLEAR     71  70  96 CALM      30.01S
CAIRO*         CLEAR     70  69  98 CALM      30.01S
EFFINGHAM*     CLEAR     73  67  82 CALM      30.04S
MARION         CLEAR     75  68  78 CALM      30.03S
MT. VERNON       N/A     70  68  93 CALM      30.03R
CENTRALIA*     CLEAR     73  68  86 CALM      30.02R
SALEM*         CLEAR     78  67  68 CALM      30.02S HX  80
METROPOLIS*    CLEAR     72  69  91 CALM      30.02S FOG
$$

ILZ067-068-072-073-078-083-087-091-230400-
SOUTHEAST ILLINOIS

CITY           SKY/WX    TMP DP  RH WIND       PRES   REMARKS
LAWRENCEVILLE  CLEAR     76  71  85 CALM      30.03S
FLORA*         CLEAR     76  68  77 CALM      30.03S
FAIRFIELD*     CLEAR     72  66  81 CALM      30.02S
HARRISBURG*    CLEAR     72  67  84 CALM      30.03R
ROBINSON*      CLEAR     70  67  90 CALM      30.04S
CARMI*         CLEAR     71  68  90 CALM      30.02S
$$

ABBREVIATIONS USED IN REMARKS
   TC - TEMPERATURE IN CELSIUS
  WCI - WIND CHILL INDEX
   HX - HEAT INDEX
  VSB - VISIBILITY
$$





USA.gov is the U.S. government's official web portal to all federal, state and local government web resources and services.